CZ-4 DEB

Satellite information

Favourite Embed

Satellite Type and Status

DEBRISIN ORBIT

Key statistics

Satellite CZ-4 DEB at a glance.

Uptime

12886

Days in orbit

Revolutions

≈ 14.1

Per day

Orbit

SSO

Sun Synchronous Orbit

Inclination

98.9

Latest

Satellite identification and parameters

Extended collection of information and parameters for CZ-4 DEB.

Object identification

Identified? True

Debris? True

Object name: CZ-4 DEB

International designator: 1990-081AZ

Object number (NORAD): 20889

Object ID (CCSDS): 20889

Country: PEOPLES REPUBLIC OF CHINA (PRC)

Current information (Y/N): Y

RCS size: MEDIUM

Orbital parameters

Period: 102.351 minutes

Inclination: 98.9066 deg

SMA: 7248.048 km

Apoapsis: 919.164 km

Periapsis: 820.661 km

RAAN: 68.8491 deg

Eccentricy: 0.00679516

Argument of periapsis: 11.8755 deg

Mean anomaly: 348.3997 deg

Mean motion: 14.06925838 rev/day

Mean motion (dot): 0.00001399 rev/day2

B* drag term: 0.0008474359 1/REarth

Two-line elements (TLE)

Creation date: Dec. 12, 2025, 10:14 a.m.

Reference frame: TEME

Reference center: EARTH

Epoch: Dec. 12, 2025, 4:29 a.m. UTC

TLE line 0: 0 CZ-4 DEB

TLE line 1: 1 20889U 90081AZ 25346.18695548 .00001399 00000-0 84744-3 0 9993

TLE line 2: 2 20889 98.9066 68.8491 0067952 11.8755 348.3997 14.06925838794097

Live tracking on map

Real-time ground track for satellite CZ-4 DEB.

In-orbit conjunctions

A list of the most updated potential collisions computed for object CZ-4 DEB.

Target Orbit TCA Probability of collision Miss distance Type
METEOR 2-11 DEB LEO 2025-04-12 03:27:24 0.0001641928 79.0 (m) DEBRIS
FENGYUN 1C DEB SSO 2024-11-12 13:12:54 0.0003538056 645.0 (m) DEBRIS

Associated space launch

Chinese polar orbiting meteorological satellite

CZ-4 DEB was lifted into orbit during the mission ‘Long March 4A | Feng Yun 1B’, on board a Long March 4A space rocket.

The launch took place on Sept. 3, 1990, 12:53 a.m. from Launch Complex 7.

For more information about the launch, click the button.

Launch to space Long March 4A | Feng Yun 1B
Long March 4A | Feng Yun 1B

Agency: N/A

Status: Launch Successful

Launch date: Sept. 3, 1990, 12:53 a.m. UTC

Rocket: Long March 4A

Launch pad: Launch Complex 7

Location: Taiyuan Satellite Launch Center, People's Republic of China

...

Latest news about this satellite

There are no fresh news available about this satellite. Check back as we update our databases every day.


Newsletter sign-up

Weekly statistics, charts and insights to help you stay on top of the space industry.